| time (UTC) | temp C | wind direction | speed KPH | gust KPH | rain 1hr cm | rain 24hr cm | rain mn cm | humidity % | barometer mb |
| 20260506113407 | 24 | 130 | 6.4 | 14.5 | 0.00 | 0.00 | 0.00 | 96 | 1008.1 |
| 20260506112903 | 24 | 124 | 6.4 | 14.5 | 0.00 | 0.00 | 0.00 | 96 | 1008.2 |
| 20260506112401 | 24 | 139 | 8.0 | 16.1 | 0.00 | 0.00 | 0.00 | 96 | 1008.2 |
| 20260506111901 | 24 | 0 | 8.0 | 16.1 | 0.00 | 0.00 | 0.00 | 96 | 1008.2 |
| 20260506111401 | 24 | 0 | 6.4 | 12.9 | 0.00 | 0.00 | 0.00 | 96 | 1008.1 |
| 20260506110900 | 24 | 152 | 6.4 | 11.3 | 0.00 | 0.00 | 0.00 | 96 | 1008.1 |
| 20260506110401 | 24 | 158 | 6.4 | 14.5 | 0.00 | 0.00 | 0.00 | 96 | 1008.2 |
| 20260506105902 | 24 | 138 | 6.4 | 14.5 | 0.00 | 0.00 | 0.00 | 96 | 1008.2 |
| 20260506105400 | 24 | 0 | 6.4 | 12.9 | 0.00 | 0.00 | 0.00 | 96 | 1008.1 |
| 20260506104902 | 24 | 0 | 4.8 | 12.9 | 0.00 | 0.00 | 0.00 | 96 | 1008.1 |
| 20260506104858 | 24 | 0 | 4.8 | 8.0 | 0.00 | 0.00 | 0.00 | 96 | 1008.1 |
| 20260506103901 | 23 | 161 | 4.8 | 9.7 | 0.00 | 0.00 | 0.00 | 96 | 1008.1 |
| 20260506103628 | 23 | 0 | 4.8 | 9.7 | 0.00 | 0.00 | 0.00 | 96 | 1007.9 |
| 20260506103123 | 23 | 137 | 6.4 | 11.3 | 0.00 | 0.00 | 0.00 | 96 | 1007.9 |
| 20260506102400 | 23 | 146 | 6.4 | 11.3 | 0.00 | 0.00 | 0.00 | 96 | 1007.8 |
| 20260506101901 | 23 | 118 | 4.8 | 9.7 | 0.00 | 0.00 | 0.00 | 96 | 1007.8 |
| 20260506101628 | 23 | 134 | 4.8 | 11.3 | 0.00 | 0.00 | 0.00 | 96 | 1007.9 |
| 20260506100901 | 23 | 128 | 4.8 | 11.3 | 0.00 | 0.00 | 0.00 | 96 | 1007.8 |
| 20260506100401 | 23 | 123 | 3.2 | 6.4 | 0.00 | 0.00 | 0.00 | 96 | 1007.6 |
| 20260506095901 | 23 | 132 | 4.8 | 8.0 | 0.00 | 0.00 | 0.00 | 96 | 1007.7 |
| 20260506095401 | 23 | 139 | 3.2 | 8.0 | 0.00 | 0.00 | 0.00 | 96 | 1007.8 |
| 20260506094901 | 23 | 127 | 3.2 | 8.0 | 0.00 | 0.00 | 0.00 | 96 | 1007.7 |
| 20260506094636 | 23 | 142 | 3.2 | 8.0 | 0.00 | 0.00 | 0.00 | 96 | 1007.7 |
| 20260506093901 | 23 | 136 | 4.8 | 6.4 | 0.00 | 0.00 | 0.00 | 96 | 1007.7 |
| 20260506093401 | 23 | 128 | 4.8 | 9.7 | 0.00 | 0.00 | 0.00 | 96 | 1007.7 |
| 20260506092901 | 23 | 128 | 4.8 | 9.7 | 0.00 | 0.00 | 0.00 | 96 | 1007.7 |
| 20260506092628 | 23 | 141 | 4.8 | 11.3 | 0.00 | 0.00 | 0.00 | 96 | 1007.7 |
| 20260506091900 | 23 | 145 | 4.8 | 11.3 | 0.00 | 0.00 | 0.00 | 96 | 1007.6 |
| 20260506091401 | 23 | 0 | 6.4 | 12.9 | 0.00 | 0.00 | 0.00 | 96 | 1007.5 |
| 20260506090901 | 23 | 130 | 6.4 | 12.9 | 0.00 | 0.00 | 0.00 | 96 | 1007.5 |
| 20260506090401 | 23 | 133 | 4.8 | 9.7 | 0.00 | 0.00 | 0.00 | 96 | 1007.4 |
| 20260506090134 | 23 | 134 | 4.8 | 9.7 | 0.00 | 0.00 | 0.00 | 96 | 1007.5 |
| 20260506085403 | 23 | 128 | 6.4 | 12.9 | 0.00 | 0.00 | 0.00 | 96 | 1007.6 |
| 20260506085359 | 23 | 126 | 8.0 | 12.9 | 0.00 | 0.00 | 0.00 | 96 | 1007.6 |
| 20260506084406 | 23 | 131 | 8.0 | 14.5 | 0.00 | 0.00 | 0.00 | 96 | 1007.4 |
| 20260506083906 | 23 | 146 | 8.0 | 16.1 | 0.00 | 0.00 | 0.00 | 95 | 1007.4 |
| 20260506083407 | 23 | 130 | 8.0 | 16.1 | 0.00 | 0.00 | 0.00 | 95 | 1007.3 |
| 20260506082907 | 23 | 151 | 6.4 | 14.5 | 0.00 | 0.00 | 0.00 | 95 | 1007.6 |
| 20260506082406 | 23 | 130 | 6.4 | 12.9 | 0.00 | 0.00 | 0.00 | 95 | 1007.7 |
| 20260506081906 | 24 | 138 | 6.4 | 12.9 | 0.00 | 0.00 | 0.00 | 95 | 1007.7 |
| 20260506081406 | 24 | 143 | 8.0 | 12.9 | 0.00 | 0.00 | 0.00 | 95 | 1007.7 |
| 20260506080906 | 24 | 133 | 8.0 | 14.5 | 0.00 | 0.00 | 0.00 | 95 | 1007.8 |
| 20260506080405 | 24 | 156 | 8.0 | 14.5 | 0.00 | 0.00 | 0.00 | 95 | 1007.8 |
| 20260506073407 | 24 | 163 | 4.8 | 11.3 | 0.00 | 0.00 | 0.00 | 93 | 1008.3 |
| 20260506072906 | 24 | 173 | 6.4 | 12.9 | 0.00 | 0.00 | 0.00 | 93 | 1008.2 |
| 20260506072406 | 25 | 144 | 6.4 | 12.9 | 0.00 | 0.00 | 0.00 | 93 | 1008.2 |
| 20260506071906 | 25 | 132 | 6.4 | 12.9 | 0.00 | 0.00 | 0.00 | 92 | 1008.4 |
| 20260506071406 | 25 | 138 | 6.4 | 12.9 | 0.00 | 0.00 | 0.00 | 92 | 1008.4 |
| 20260506071130 | 25 | 151 | 6.4 | 14.5 | 0.00 | 0.00 | 0.00 | 93 | 1008.5 |
| 20260506070630 | 25 | 157 | 6.4 | 16.1 | 0.00 | 0.00 | 0.00 | 93 | 1008.7 |
| 20260506062402 | 25 | 167 | 8.0 | 12.9 | 0.00 | 0.00 | 0.00 | 93 | 1009.0 |
| 20260506061902 | 25 | 171 | 8.0 | 14.5 | 0.00 | 0.00 | 0.00 | 93 | 1008.9 |
| 20260506061402 | 25 | 146 | 8.0 | 14.5 | 0.00 | 0.00 | 0.00 | 93 | 1009.0 |
| 20260506060902 | 25 | 173 | 9.7 | 16.1 | 0.00 | 0.00 | 0.00 | 93 | 1008.9 |
| 20260506060359 | 25 | 134 | 9.7 | 20.9 | 0.00 | 0.00 | 0.00 | 93 | 1008.8 |
| 20260506051344 | 25 | 128 | 12.9 | 22.5 | 0.00 | 0.00 | 0.00 | 92 | 1008.5 |
| 20260506050845 | 25 | 148 | 11.3 | 17.7 | 0.00 | 0.00 | 0.00 | 92 | 1008.4 |
| 20260506050348 | 25 | 161 | 11.3 | 19.3 | 0.00 | 0.00 | 0.00 | 92 | 1008.4 |
| 20260506044843 | 25 | 146 | 11.3 | 20.9 | 0.00 | 0.00 | 0.00 | 91 | 1008.4 |
| 20260506044610 | 25 | 157 | 12.9 | 20.9 | 0.00 | 0.00 | 0.00 | 91 | 1008.4 |
| 20260506044111 | 25 | 171 | 12.9 | 20.9 | 0.00 | 0.00 | 0.00 | 91 | 1008.5 |
| 20260506043342 | 25 | 142 | 11.3 | 20.9 | 0.00 | 0.00 | 0.00 | 91 | 1008.5 |
| 20260506042842 | 25 | 144 | 11.3 | 20.9 | 0.00 | 0.00 | 0.00 | 91 | 1008.4 |
| 20260506042343 | 25 | 164 | 11.3 | 20.9 | 0.00 | 0.00 | 0.00 | 91 | 1008.4 |
| 20260506042113 | 25 | 148 | 12.9 | 20.9 | 0.00 | 0.00 | 0.00 | 91 | 1008.5 |
| 20260506041839 | 25 | 184 | 11.3 | 22.5 | 0.00 | 0.00 | 0.00 | 91 | 1008.4 |
| 20260506040843 | 25 | 182 | 12.9 | 22.5 | 0.00 | 0.00 | 0.00 | 91 | 1008.4 |
| 20260506040343 | 25 | 155 | 14.5 | 22.5 | 0.00 | 0.00 | 0.00 | 91 | 1008.4 |
| 20260506035842 | 25 | 139 | 14.5 | 25.7 | 0.00 | 0.00 | 0.00 | 91 | 1008.4 |
| 20260506035343 | 25 | 140 | 14.5 | 25.7 | 0.00 | 0.00 | 0.00 | 91 | 1008.4 |
| 20260506034843 | 25 | 130 | 12.9 | 24.1 | 0.00 | 0.00 | 0.00 | 91 | 1008.3 |
| 20260506034339 | 25 | 153 | 12.9 | 27.4 | 0.00 | 0.00 | 0.00 | 90 | 1008.4 |
| 20260506033838 | 25 | 161 | 12.9 | 27.4 | 0.00 | 0.00 | 0.00 | 90 | 1008.5 |
| 20260506033339 | 25 | 171 | 12.9 | 20.9 | 0.00 | 0.00 | 0.00 | 90 | 1008.4 |
| 20260506032838 | 25 | 158 | 12.9 | 22.5 | 0.00 | 0.00 | 0.00 | 90 | 1008.5 |
| 20260506032604 | 25 | 91 | 11.3 | 22.5 | 0.00 | 0.00 | 0.00 | 90 | 1008.3 |
| 20260506031838 | 25 | 138 | 12.9 | 22.5 | 0.00 | 0.00 | 0.00 | 90 | 1008.4 |
| 20260506031337 | 25 | 155 | 12.9 | 22.5 | 0.00 | 0.00 | 0.00 | 90 | 1008.4 |
| 20260506031105 | 25 | 165 | 12.9 | 22.5 | 0.00 | 0.00 | 0.00 | 90 | 1008.3 |
| 20260506030335 | 25 | 138 | 12.9 | 22.5 | 0.00 | 0.00 | 0.00 | 90 | 1008.1 |
| 20260506025835 | 25 | 152 | 11.3 | 22.5 | 0.00 | 0.00 | 0.00 | 90 | 1008.1 |
| 20260506025338 | 25 | 153 | 12.9 | 22.5 | 0.00 | 0.00 | 0.00 | 90 | 1007.9 |
| 20260506024835 | 25 | 161 | 14.5 | 27.4 | 0.00 | 0.00 | 0.00 | 90 | 1008.0 |
| 20260506024334 | 25 | 155 | 12.9 | 27.4 | 0.00 | 0.00 | 0.00 | 90 | 1007.8 |
| 20260506023834 | 25 | 168 | 11.3 | 24.1 | 0.00 | 0.00 | 0.00 | 91 | 1007.8 |
| 20260506023333 | 25 | 155 | 12.9 | 24.1 | 0.00 | 0.00 | 0.00 | 90 | 1007.7 |
| 20260506023051 | 25 | 157 | 11.3 | 22.5 | 0.00 | 0.00 | 0.00 | 90 | 1007.5 |
| 20260506023035 | 25 | 155 | 11.3 | 22.5 | 0.00 | 0.00 | 0.00 | 91 | 1007.6 |
| 20260506021829 | 25 | 148 | 12.9 | 24.1 | 0.00 | 0.00 | 0.00 | 90 | 1007.4 |
| 20260506021553 | 25 | 127 | 12.9 | 24.1 | 0.00 | 0.00 | 0.00 | 90 | 1007.3 |
| 20260506020830 | 25 | 150 | 12.9 | 22.5 | 0.00 | 0.00 | 0.00 | 90 | 1007.3 |
| 20260506020330 | 25 | 161 | 12.9 | 27.4 | 0.00 | 0.00 | 0.00 | 90 | 1007.2 |
| 20260506015831 | 25 | 130 | 12.9 | 27.4 | 0.00 | 0.00 | 0.00 | 90 | 1007.2 |
| 20260506015558 | 25 | 130 | 11.3 | 24.1 | 0.00 | 0.00 | 0.00 | 91 | 1007.1 |
| 20260506014832 | 25 | 140 | 11.3 | 19.3 | 0.00 | 0.00 | 0.00 | 91 | 1007.1 |
| 20260506014331 | 25 | 182 | 9.7 | 19.3 | 0.00 | 0.00 | 0.00 | 91 | 1006.9 |
| 20260506013830 | 25 | 148 | 9.7 | 19.3 | 0.00 | 0.00 | 0.00 | 91 | 1006.8 |
| 20260506013335 | 25 | 142 | 11.3 | 16.1 | 0.00 | 0.00 | 0.00 | 91 | 1006.6 |
| 20260506012833 | 25 | 145 | 11.3 | 19.3 | 0.00 | 0.00 | 0.00 | 90 | 1006.4 |
| 20260506012335 | 25 | 150 | 11.3 | 19.3 | 0.00 | 0.00 | 0.00 | 90 | 1006.4 |
| 20260506011833 | 25 | 144 | 11.3 | 17.7 | 0.00 | 0.00 | 0.00 | 90 | 1006.2 |
| 20260506011334 | 25 | 140 | 11.3 | 17.7 | 0.00 | 0.00 | 0.00 | 90 | 1006.3 |
| 20260506010828 | 25 | 155 | 11.3 | 22.5 | 0.00 | 0.00 | 0.00 | 89 | 1006.2 |
| 20260506010322 | 25 | 130 | 11.3 | 22.5 | 0.00 | 0.00 | 0.00 | 89 | 1006.1 |
| 20260506005823 | 25 | 125 | 12.9 | 22.5 | 0.00 | 0.00 | 0.00 | 88 | 1006.2 |
| 20260506005310 | 25 | 158 | 14.5 | 24.1 | 0.00 | 0.00 | 0.00 | 88 | 1006.1 |
| 20260506004810 | 25 | 148 | 12.9 | 25.7 | 0.00 | 0.00 | 0.00 | 87 | 1006.0 |
| 20260506004308 | 26 | 119 | 11.3 | 25.7 | 0.00 | 0.00 | 0.00 | 87 | 1006.2 |
| 20260506003807 | 26 | 138 | 11.3 | 20.9 | 0.00 | 0.00 | 0.00 | 86 | 1006.0 |
| 20260506003531 | 26 | 160 | 12.9 | 22.5 | 0.00 | 0.00 | 0.00 | 86 | 1006.1 |
| 20260506003037 | 26 | 132 | 14.5 | 33.8 | 0.00 | 0.00 | 0.00 | 86 | 1006.1 |
| 20260506002306 | 26 | 171 | 14.5 | 33.8 | 0.00 | 0.00 | 0.00 | 85 | 1006.0 |
| 20260506002035 | 26 | 146 | 12.9 | 27.4 | 0.00 | 0.00 | 0.00 | 85 | 1005.9 |
| 20260506002013 | 26 | 171 | 14.5 | 27.4 | 0.00 | 0.00 | 0.00 | 85 | 1006.0 |
| 20260506000802 | 26 | 157 | 12.9 | 24.1 | 0.00 | 0.00 | 0.00 | 85 | 1006.0 |
| 20260506000303 | 26 | 165 | 14.5 | 33.8 | 0.00 | 0.00 | 0.00 | 84 | 1006.0 |
| 20260505235802 | 26 | 142 | 14.5 | 33.8 | 0.00 | 0.00 | 0.00 | 84 | 1005.9 |
| 20260505235529 | 26 | 121 | 14.5 | 32.2 | 0.00 | 0.00 | 0.00 | 85 | 1006.0 |
| 20260505234802 | 26 | 174 | 16.1 | 32.2 | 0.00 | 0.00 | 0.00 | 84 | 1006.0 |
| 20260505234756 | 26 | 184 | 12.9 | 27.4 | 0.00 | 0.00 | 0.00 | 84 | 1006.1 |
| 20260505233805 | 26 | 167 | 11.3 | 19.3 | 0.00 | 0.00 | 0.00 | 84 | 1006.2 |
| 20260505233305 | 26 | 144 | 11.3 | 20.9 | 0.00 | 0.00 | 0.00 | 84 | 1006.2 |
| 20260505232805 | 26 | 153 | 12.9 | 24.1 | 0.00 | 0.00 | 0.00 | 84 | 1006.2 |
| 20260505232305 | 26 | 142 | 14.5 | 25.7 | 0.00 | 0.00 | 0.00 | 83 | 1006.3 |
| 20260505231802 | 26 | 190 | 12.9 | 25.7 | 0.00 | 0.00 | 0.00 | 83 | 1006.3 |
| 20260505231301 | 27 | 180 | 12.9 | 27.4 | 0.00 | 0.00 | 0.00 | 83 | 1006.1 |
| 20260505230801 | 27 | 201 | 14.5 | 27.4 | 0.00 | 0.00 | 0.00 | 83 | 1006.2 |
| 20260505230301 | 27 | 162 | 14.5 | 22.5 | 0.00 | 0.00 | 0.00 | 83 | 1006.2 |
| 20260505225801 | 27 | 126 | 12.9 | 24.1 | 0.00 | 0.00 | 0.00 | 83 | 1006.5 |
| 20260505225301 | 27 | 184 | 12.9 | 24.1 | 0.00 | 0.00 | 0.00 | 83 | 1006.5 |
| 20260505224802 | 27 | 154 | 11.3 | 24.1 | 0.00 | 0.00 | 0.00 | 82 | 1006.4 |
| 20260505224301 | 27 | 178 | 12.9 | 22.5 | 0.00 | 0.00 | 0.00 | 83 | 1006.4 |
| 20260505224036 | 27 | 98 | 14.5 | 29.0 | 0.00 | 0.00 | 0.00 | 82 | 1006.4 |
| 20260505223755 | 27 | 156 | 12.9 | 29.0 | 0.00 | 0.00 | 0.00 | 82 | 1006.3 |
| 20260505222801 | 27 | 0 | 12.9 | 30.6 | 0.00 | 0.00 | 0.00 | 82 | 1006.4 |
| 20260505222300 | 27 | 176 | 14.5 | 30.6 | 0.00 | 0.00 | 0.00 | 82 | 1006.4 |
| 20260505221804 | 27 | 195 | 12.9 | 25.7 | 0.00 | 0.00 | 0.00 | 82 | 1006.4 |
| 20260505221303 | 27 | 185 | 11.3 | 25.7 | 0.00 | 0.00 | 0.00 | 82 | 1006.4 |
| 20260505220808 | 27 | 147 | 12.9 | 32.2 | 0.00 | 0.00 | 0.00 | 82 | 1006.6 |
| 20260505220801 | 27 | 0 | 12.9 | 32.2 | 0.00 | 0.00 | 0.00 | 82 | 1006.5 |
| 20260505215800 | 27 | 193 | 11.3 | 24.1 | 0.00 | 0.00 | 0.00 | 82 | 1006.6 |
| 20260505215253 | 27 | 166 | 12.9 | 29.0 | 0.00 | 0.00 | 0.00 | 82 | 1006.8 |
| 20260505215014 | 27 | 188 | 14.5 | 27.4 | 0.00 | 0.00 | 0.00 | 82 | 1006.9 |
| 20260505214244 | 27 | 221 | 14.5 | 29.0 | 0.00 | 0.00 | 0.00 | 81 | 1007.0 |
| 20260505213744 | 27 | 213 | 14.5 | 30.6 | 0.00 | 0.00 | 0.00 | 80 | 1006.9 |
| 20260505213244 | 27 | 150 | 12.9 | 30.6 | 0.00 | 0.00 | 0.00 | 80 | 1007.0 |
| 20260505212744 | 27 | 179 | 12.9 | 24.1 | 0.00 | 0.00 | 0.00 | 80 | 1007.0 |
| 20260505212244 | 27 | 126 | 12.9 | 25.7 | 0.00 | 0.00 | 0.00 | 81 | 1007.2 |
| 20260505212015 | 27 | 142 | 12.9 | 25.7 | 0.00 | 0.00 | 0.00 | 81 | 1007.3 |
| 20260505211243 | 27 | 157 | 12.9 | 22.5 | 0.00 | 0.00 | 0.00 | 82 | 1007.3 |
| 20260505210744 | 27 | 158 | 11.3 | 22.5 | 0.00 | 0.00 | 0.00 | 81 | 1007.3 |
| 20260505210518 | 27 | 200 | 11.3 | 24.1 | 0.00 | 0.00 | 0.00 | 81 | 1007.5 |
| 20260505205744 | 27 | 187 | 11.3 | 24.1 | 0.00 | 0.00 | 0.00 | 81 | 1007.6 |
| 20260505205242 | 27 | 151 | 12.9 | 24.1 | 0.00 | 0.00 | 0.00 | 81 | 1007.8 |
| 20260505204742 | 27 | 171 | 12.9 | 27.4 | 0.00 | 0.00 | 0.00 | 81 | 1007.8 |
| 20260505204242 | 27 | 209 | 12.9 | 27.4 | 0.00 | 0.00 | 0.00 | 81 | 1007.9 |
| 20260505203742 | 27 | 196 | 12.9 | 25.7 | 0.00 | 0.00 | 0.00 | 81 | 1008.0 |
| 20260505203241 | 27 | 121 | 12.9 | 25.7 | 0.00 | 0.00 | 0.00 | 80 | 1008.0 |
| 20260505202740 | 27 | 164 | 12.9 | 27.4 | 0.00 | 0.00 | 0.00 | 79 | 1007.9 |
| 20260505202512 | 27 | 185 | 12.9 | 29.0 | 0.00 | 0.00 | 0.00 | 79 | 1007.9 |
| 20260505201740 | 27 | 141 | 12.9 | 29.0 | 0.00 | 0.00 | 0.00 | 79 | 1008.0 |
| 20260505201240 | 27 | 158 | 11.3 | 24.1 | 0.00 | 0.00 | 0.00 | 81 | 1008.2 |
| 20260505201006 | 27 | 139 | 12.9 | 25.7 | 0.00 | 0.00 | 0.00 | 81 | 1008.3 |
| 20260505200239 | 27 | 201 | 14.5 | 25.7 | 0.00 | 0.00 | 0.00 | 81 | 1008.2 |
| 20260505200232 | 27 | 166 | 12.9 | 24.1 | 0.00 | 0.00 | 0.00 | 79 | 1008.3 |
| 20260505195239 | 27 | 179 | 14.5 | 27.4 | 0.00 | 0.00 | 0.00 | 79 | 1008.4 |
| 20260505194740 | 27 | 177 | 14.5 | 29.0 | 0.00 | 0.00 | 0.00 | 79 | 1008.2 |
| 20260505194236 | 27 | 188 | 14.5 | 29.0 | 0.00 | 0.00 | 0.00 | 78 | 1008.4 |
| 20260505193736 | 27 | 213 | 14.5 | 30.6 | 0.00 | 0.00 | 0.00 | 79 | 1008.4 |
| 20260505193236 | 27 | 188 | 12.9 | 30.6 | 0.00 | 0.00 | 0.00 | 77 | 1008.4 |
| 20260505192736 | 27 | 184 | 12.9 | 29.0 | 0.00 | 0.00 | 0.00 | 79 | 1008.4 |
| 20260505192235 | 27 | 178 | 14.5 | 32.2 | 0.00 | 0.00 | 0.00 | 78 | 1008.5 |
| 20260505191736 | 27 | 163 | 16.1 | 32.2 | 0.00 | 0.00 | 0.00 | 79 | 1008.4 |
| 20260505191235 | 27 | 207 | 16.1 | 33.8 | 0.00 | 0.00 | 0.00 | 79 | 1008.5 |
| 20260505191001 | 27 | 238 | 14.5 | 33.8 | 0.00 | 0.00 | 0.00 | 79 | 1008.6 |
| 20260505190236 | 27 | 191 | 12.9 | 29.0 | 0.00 | 0.00 | 0.00 | 79 | 1008.6 |
| 20260505185736 | 27 | 234 | 12.9 | 24.1 | 0.00 | 0.00 | 0.00 | 80 | 1008.6 |
| 20260505185236 | 27 | 190 | 14.5 | 33.8 | 0.00 | 0.00 | 0.00 | 79 | 1008.6 |
| 20260505184733 | 27 | 168 | 14.5 | 33.8 | 0.00 | 0.00 | 0.00 | 79 | 1008.6 |
| 20260505184233 | 27 | 166 | 11.3 | 27.4 | 0.00 | 0.00 | 0.00 | 80 | 1008.7 |
| 20260505183733 | 27 | 209 | 9.7 | 24.1 | 0.00 | 0.00 | 0.00 | 80 | 1008.8 |
| 20260505183456 | 28 | 198 | 12.9 | 30.6 | 0.00 | 0.00 | 0.00 | 80 | 1008.9 |
| 20260505183438 | 28 | 181 | 12.9 | 30.6 | 0.00 | 0.00 | 0.00 | 78 | 1008.9 |
| 20260505182236 | 27 | 228 | 12.9 | 27.4 | 0.00 | 0.00 | 0.00 | 80 | 1008.9 |
| 20260505181735 | 27 | 140 | 12.9 | 27.4 | 0.00 | 0.00 | 0.00 | 82 | 1008.7 |
| 20260505181232 | 27 | 225 | 12.9 | 27.4 | 0.00 | 0.00 | 0.00 | 81 | 1008.8 |
| 20260505180734 | 27 | 150 | 12.9 | 22.5 | 0.00 | 0.00 | 0.00 | 81 | 1008.8 |
| 20260505180233 | 27 | 188 | 14.5 | 29.0 | 0.00 | 0.00 | 0.00 | 81 | 1008.9 |
| 20260505175733 | 27 | 188 | 16.1 | 29.0 | 0.00 | 0.00 | 0.00 | 81 | 1009.0 |
| 20260505175234 | 27 | 132 | 14.5 | 27.4 | 0.00 | 0.00 | 0.00 | 82 | 1009.0 |
| 20260505174733 | 27 | 180 | 12.9 | 32.2 | 0.00 | 0.00 | 0.00 | 82 | 1009.0 |
| 20260505174233 | 27 | 161 | 12.9 | 32.2 | 0.00 | 0.00 | 0.00 | 81 | 1009.0 |
| 20260505173734 | 27 | 113 | 14.5 | 32.2 | 0.00 | 0.00 | 0.00 | 82 | 1009.2 |
| 20260505173233 | 27 | 219 | 14.5 | 27.4 | 0.00 | 0.00 | 0.00 | 80 | 1009.2 |
| 20260505172733 | 27 | 161 | 12.9 | 22.5 | 0.00 | 0.00 | 0.00 | 81 | 1009.1 |
| 20260505172233 | 27 | 130 | 14.5 | 29.0 | 0.00 | 0.00 | 0.00 | 82 | 1009.2 |
| 20260505171733 | 27 | 144 | 14.5 | 29.0 | 0.00 | 0.00 | 0.00 | 82 | 1009.1 |
| 20260505171233 | 27 | 189 | 12.9 | 27.4 | 0.00 | 0.00 | 0.00 | 82 | 1009.2 |
| 20260505171000 | 27 | 199 | 14.5 | 27.4 | 0.00 | 0.00 | 0.00 | 83 | 1009.1 |
| 20260505170233 | 27 | 219 | 14.5 | 33.8 | 0.00 | 0.00 | 0.00 | 83 | 1009.1 |
| 20260505165956 | 27 | 171 | 14.5 | 33.8 | 0.00 | 0.00 | 0.00 | 82 | 1009.1 |
| 20260505165233 | 27 | 138 | 12.9 | 29.0 | 0.00 | 0.00 | 0.00 | 83 | 1009.0 |
| 20260505164734 | 26 | 175 | 12.9 | 29.0 | 0.00 | 0.00 | 0.00 | 83 | 1009.2 |
| 20260505164234 | 26 | 183 | 12.9 | 25.7 | 0.00 | 0.00 | 0.00 | 85 | 1009.1 |
| 20260505163733 | 26 | 181 | 14.5 | 27.4 | 0.00 | 0.00 | 0.00 | 84 | 1009.2 |
| 20260505163233 | 26 | 175 | 14.5 | 27.4 | 0.00 | 0.00 | 0.00 | 84 | 1009.3 |
| 20260505162733 | 27 | 185 | 12.9 | 29.0 | 0.00 | 0.00 | 0.00 | 84 | 1009.4 |
| 20260505162238 | 26 | 159 | 12.9 | 29.0 | 0.00 | 0.00 | 0.00 | 84 | 1009.3 |
| 20260505161733 | 26 | 163 | 12.9 | 25.7 | 0.00 | 0.00 | 0.00 | 84 | 1009.2 |
| 20260505161233 | 26 | 221 | 11.3 | 24.1 | 0.00 | 0.00 | 0.00 | 84 | 1009.3 |
| 20260505160738 | 26 | 175 | 12.9 | 25.7 | 0.00 | 0.00 | 0.00 | 85 | 1009.2 |
| 20260505160235 | 26 | 205 | 12.9 | 25.7 | 0.00 | 0.00 | 0.00 | 85 | 1009.3 |
| 20260505153233 | 26 | 128 | 14.5 | 27.4 | 0.00 | 0.00 | 0.00 | 85 | 1009.1 |
| 20260505152733 | 26 | 184 | 12.9 | 27.4 | 0.00 | 0.00 | 0.00 | 85 | 1009.0 |
| 20260505152237 | 26 | 215 | 12.9 | 27.4 | 0.00 | 0.00 | 0.00 | 85 | 1009.0 |
| 20260505151734 | 26 | 180 | 12.9 | 25.7 | 0.00 | 0.00 | 0.00 | 86 | 1009.0 |
| 20260505151235 | 26 | 194 | 11.3 | 25.7 | 0.00 | 0.00 | 0.00 | 86 | 1008.9 |
| 20260505150734 | 26 | 125 | 11.3 | 24.1 | 0.00 | 0.00 | 0.00 | 87 | 1008.9 |
| 20260505150237 | 25 | 184 | 12.9 | 27.4 | 0.00 | 0.00 | 0.00 | 87 | 1009.0 |
| 20260505140501 | 25 | 196 | 12.9 | 25.7 | 0.00 | 0.00 | 0.00 | 89 | 1008.9 |
| 20260505140240 | 25 | 196 | 12.9 | 25.7 | 0.00 | 0.00 | 0.00 | 89 | 1008.9 |
| 20260505130234 | 24 | 183 | 11.3 | 29.0 | 0.00 | 0.00 | 0.00 | 92 | 1008.6 |
| 20260505124734 | 23 | 166 | 9.7 | 22.5 | 0.00 | 0.00 | 0.00 | 92 | 1008.5 |
| 20260505124234 | 23 | 176 | 9.7 | 20.9 | 0.00 | 0.00 | 0.00 | 92 | 1008.4 |
| 20260505124005 | 23 | 196 | 9.7 | 20.9 | 0.00 | 0.00 | 0.00 | 93 | 1008.4 |
| 20260505123234 | 23 | 182 | 11.3 | 19.3 | 0.00 | 0.00 | 0.00 | 93 | 1008.4 |
| 20260505122734 | 23 | 192 | 9.7 | 20.9 | 0.00 | 0.00 | 0.00 | 93 | 1008.2 |
| 20260505122459 | 23 | 171 | 8.0 | 20.9 | 0.00 | 0.00 | 0.00 | 93 | 1008.1 |
| 20260505121734 | 23 | 178 | 8.0 | 17.7 | 0.00 | 0.00 | 0.00 | 93 | 1008.1 |
| 20260505121235 | 23 | 158 | 8.0 | 17.7 | 0.00 | 0.00 | 0.00 | 94 | 1008.2 |
| 20260505120734 | 23 | 162 | 8.0 | 17.7 | 0.00 | 0.00 | 0.00 | 93 | 1008.2 |
| 20260505120235 | 23 | 192 | 8.0 | 17.7 | 0.00 | 0.00 | 0.00 | 93 | 1008.1 |
| 20260505115735 | 23 | 183 | 8.0 | 17.7 | 0.00 | 0.00 | 0.00 | 93 | 1008.1 |
| 20260505115234 | 23 | 211 | 8.0 | 16.1 | 0.00 | 0.00 | 0.00 | 94 | 1008.1 |
| 20260505114734 | 23 | 147 | 6.4 | 14.5 | 0.00 | 0.00 | 0.00 | 94 | 1008.1 |
| 20260505114234 | 23 | 168 | 6.4 | 12.9 | 0.00 | 0.00 | 0.00 | 94 | 1008.3 |
| 20260505114005 | 23 | 160 | 6.4 | 14.5 | 0.00 | 0.00 | 0.00 | 93 | 1008.2 |
| 20260505113735 | 23 | 165 | 6.4 | 14.5 | 0.00 | 0.00 | 0.00 | 93 | 1008.3 |